sat.trackr.live / text

‹ back to catalog

WGS F5 (USA 243)

NORAD 39168 · 2013-024A

PAYLOAD ACTIVE UNKNOWN

§ Identity

Operator
Country
US
Launch date
2013-05-25
Launch site
AFETR
Launch vehicle
Mass (kg)
RCS (m²)
17.94

Purposes: comms

External: N2YO · Heavens-Above · Gunter

§ Orbital elements

Epoch: 2026-05-24T20:38:54.913056Z

Period
1,436.11 min
Inclination
0.0187°
Eccentricity
0.0000397
Mean motion
1.00271056 rev/d
Perigee alt
35,785.1 km
Apogee alt
35,788.5 km
Semi-major
42,164.9 km
B*
0.0000e+0
RAAN
291.6352°
Arg perigee
51.9161°
Mean anomaly
156.1185°
Rev number
4,694

§ Raw data

WGS F5 (USA 243)1 39168U 13024A   26144.86035779 -.00000288  00000+0  00000+0 0  99962 39168   0.0187 291.6352 0000397  51.9161 156.1185  1.00271056 46947

JSON: /api/v1/satellites/39168 · /tle

For live sub-satellite position, see the globe view (requires WebGL).

§ Visibility from observer

Set your observer location to see the next 7 days of passes ≥ 10°. The values pass through the URL so the page stays shareable.

No JS? Fill the form by hand. The geolocation button needs JavaScript.